Regional Weather Roundup
Issued by NWS

Home | Current Version | Previous Version | Text Only | Print | Product List | Glossary Off
Versions: 1 2 3 4 5 6 7 8 9 10 11 12 13 14 15 16 17 18 19 20 21 22 23 24 25 26 27 28 29 30 31 32 33 34 35 36 37 38 39 40 41 42 43 44 45 46 47 48 49 50

000
ASUS45 KTFX 170404
RWRMT
MONTANA HOURLY WEATHER ROUNDUP
NATIONAL WEATHER SERVICE GREAT FALLS MT
1004 PM MDT TUE SEP 16 2014

NOTE: "FAIR" INDICATES FEW OR NO CLOUDS BELOW 12000 FEET WITH NO
SIGNIFICANT WEATHER AND/OR OBSTRUCTIONS TO VISIBILITY.

* THESE STATIONS ARE NOT UNDER NWS QUALITY CONTROL. THEY DO NOT
   REPORT WEATHER SUCH AS PRECIPITATION OR FOG.

MTZ001>007-043-170500-
WEST OF THE DIVIDE
CITY           SKY/WX    TMP DP  RH WIND       PRES   REMARKS
KALISPELL      CLOUDY    55  46  72 CALM      29.90S
MISSOULA       PTCLDY    63  43  48 CALM      29.92S
BUTTE          PTCLDY    55  43  64 SE5       30.08S
MULLAN PASS    MOCLDY    63  37  38 NW3       30.07R
* ESSEX        N/A       58  45  62 N/A        N/A
* LINCOLN      N/A       60  42  52 NW3        N/A
* LOOKOUT PASS N/A       62  43  50 N2         N/A
* POLSON       N/A       61  40  46 N/A        N/A
* RONAN APT    MOCLDY    57  45  64 N/A        N/A
* SEELEY LAKE  N/A       58  43  58 E1         N/A
* THOMP F APT  MOCLDY    62  35  37 N3G8       N/A
$$

MTZ008-052>055-170500-
SOUTHWEST MONTANA
CITY           SKY/WX    TMP DP  RH WIND       PRES   REMARKS
BOZEMAN        PTCLDY    63  45  52 S5        30.01S
DILLON         PTCLDY    61  46  58 S9        30.04F
W YELLOWSTONE  CLEAR     48  39  71 CALM      30.17S
* THREE FORKS  PTCLDY    64  64 100 N/A        N/A
* BOULDER HILL N/A       61  39  44 SW4G9      N/A
* MONIDA PASS  N/A       50  44  80 SW6        N/A
* RAYNOLDS PAS N/A       52  29  41 SE7        N/A
* WHITEHALL    N/A       59  43  56 N7G12      N/A
* WISE RIVER   N/A       58  38  47 SE4G10     N/A
$$

MTZ009>010-012-014-046-048-049-054-170500-
EAST SLOPES AND CENTRAL MONTANA
CITY           SKY/WX    TMP DP  RH WIND       PRES   REMARKS
CUT BANK       CLOUDY    61  41  48 NW8       29.92R
GREAT FALLS    CLOUDY    64  45  50 W10       29.90F
HELENA         MOCLDY    70  46  42 S5        29.98S
MALMSTROM AFB  CLOUDY    61  48  62 SW3       29.91S
* CONRAD       CLOUDY    61  46  58 SE6        N/A
* EAST GLACIER N/A       61  39  44 NW4        N/A
* MONARCH      N/A       58  38  47 S9         N/A
* PENDROY      N/A       69  40  35 W10        N/A
* ROGERS PASS  N/A       62  40  45 NW3        N/A
* SAINT MARY   N/A       54  42  64 SE3        N/A
* SWEET GRASS  N/A       66  37  34 SW13       N/A
$$

MTZ011-013-016-021-035-040-045-047-050-051-170500-
NORTH CENTRAL MONTANA
CITY           SKY/WX    TMP DP  RH WIND       PRES   REMARKS
HAVRE          CLOUDY    59  48  67 NE7       29.87S
LEWISTOWN      CLOUDY    59  48  67 E6        29.97S
* CHESTER      N/A       64  39  40 SE3        N/A
* DENTON       N/A       59  44  58 SW1        N/A
* GEYSER       N/A       56  46  69 SW5        N/A
* JUDITH GAP   N/A       58  42  55 SE2        N/A
* LOMA         N/A       64  46  52 NE11       N/A
$$

MTZ017>020-022>027-061-062-170500-
NORTHEAST MONTANA
CITY           SKY/WX    TMP DP  RH WIND       PRES   REMARKS
GLASGOW        PTCLDY    57  43  60 E12       29.89R
JORDAN         CLOUDY    57  50  78 CALM      29.91R
SIDNEY         CLEAR     52  39  61 W3        29.93S
WOLF POINT     PTCLDY    55  39  55 CALM      29.91R
* BEAVER HILL  N/A       59  43  56 SE11       N/A
* CIRCLE       N/A       56  45  67 N/A        N/A
* LINDSAY DVD  N/A       56  44  64 W2         N/A
* NAVAJO       N/A       57  37  47 SW7        N/A
* SACO         N/A       53  46  77 E5         N/A
$$

MTZ028>042-056>058-170500-
SOUTHCENTRAL AND SOUTHEAST MONTANA
CITY           SKY/WX    TMP DP  RH WIND       PRES   REMARKS
BAKER          CLOUDY    54  46  74 SE5       29.96R
BILLINGS       PTCLDY    70  39  32 CALM      29.94S
LIVINGSTON     PTCLDY    66  43  43 W7G17     29.99S
MILES CITY     MOCLDY    64  43  47 CALM      29.91S
* LAUREL APT   PTCLDY    70  41  35 N/A        N/A
* ROUNDUP APT  MOCLDY    63  46  54 N/A        N/A
* ALZADA       N/A       58  43  58 E4         N/A
* HYSHAM       N/A       67  42  40 E2         N/A
* LAME DEER    N/A       68  43  40 SE5        N/A
* REED POINT   N/A       61  48  62 W2         N/A
* ROSCOE HILL  N/A       68  31  25 W9G20      N/A
$$

REGIONAL REPORTS...DAKOTAS
CITY           SKY/WX    TMP DP  RH WIND       PRES   REMARKS
WILLISTON      CLEAR     48  39  71 N5        29.92R
DICKINSON      PTCLDY    48  41  77 SE5       29.93S
BEACH          N/A       48  45  89 S5        29.95R
CROSBY         CLEAR     50  45  83 S8        29.91S
TIOGA          CLEAR     41  39  93 CALM      29.96S
WATFORD CITY   CLEAR     48  36  63 CALM      29.91S
BISMARCK       CLEAR     52  46  80 NE5       29.92S
GRAND FORKS    CLEAR     52  45  77 S7        29.91S
FARGO          CLEAR     55  46  72 E7        29.93S
BUFFALO SD     PTCLDY    61  46  58 NE8       29.89R
RAPID CITY     CLEAR     55  46  72 W7        29.96S
$$

REGIONAL REPORTS...WYOMING/IDAHO/WASHINGTON
CITY           SKY/WX    TMP DP  RH WIND       PRES   REMARKS
GILLETTE       PTCLDY    54  41  62 S7        30.03R
SHERIDAN       MOCLDY    57  48  72 S6        29.99F
CODY           PTCLDY    57  45  64 S5        30.07S
YELLOWSTONE LA PTCLDY    45  39  80 CALM      30.27S
SALMON         PTCLDY    55  46  72 CALM      29.97R
MULLAN PASS    MOCLDY    63  37  38 NW3       30.07S
SAND POINT     CLOUDY    55  50  83 CALM      29.84S
SPOKANE        CLOUDY    72  37  28 SW3       29.83S

$$




USA.gov is the U.S. government's official web portal to all federal, state and local government web resources and services.